#timestamp,LO_Frequency,Hit,StdDev 
1650513615.8,286047002.0,N
1650513635.6,286047001.0,N
1650513655.5,286046995.6,N
1650513675.3,286046997.9,N
1650513695.2,286047000.4,N
1650513715.9,286046999.2,N
1650513735.7,286047000.5,N
1650513755.6,286046998.6,N
1650513775.4,286046997.4,N
1650513795.2,286047000.4,N
1650513815.1,286047002.6,N
1650513816.0,286047002.6,N
1650513835.8,286046996.6,N
1650513855.7,286046998.5,N
1650513875.5,286046997.0,N
1650513895.3,286046998.4,N
1650513915.2,286047001.0,N
1650513935.9,286047000.7,N
1650513955.7,286046998.8,N
1650513975.6,286046996.1,N
1650513995.4,286046998.1,N
1650514015.3,286047000.7,N
1650514035.1,286046999.2,N
1650514036.0,286046999.2,N
1650514055.8,286046996.5,N
1650514075.7,286046999.7,N
1650514095.5,286046999.4,N
1650514115.3,286047000.6,N
1650514135.2,286046999.8,N
1650514155.0,286047002.5,N
1650514155.9,286047002.5,N
1650514175.8,286047004.2,N
1650514195.6,286047004.6,N
1650514215.4,286047003.5,N
1650514235.3,286047002.2,N
1650514255.1,286047002.8,N
1650514275.8,286046996.7,N
1650514295.7,286046995.8,N
1650514315.5,286046993.8,N
1650514335.4,286046998.6,N
1650514355.2,286046998.6,N
1650514375.0,286047000.2,N
1650514375.9,286047000.2,N
1650514395.8,286047000.4,N
1650514415.6,286046998.8,N
1650514435.4,286047001.8,N
1650514455.3,286047003.3,N
1650514475.1,286047003.3,N
1650514495.9,286047004.5,N
1650514515.7,286047007.1,N
1650514535.5,286047005.9,N
1650514555.4,286047002.7,N
1650514575.2,286047002.1,N
1650514595.0,286047002.1,N
1650514595.9,286047002.1,N
1650514615.8,286047002.8,N
1650514635.6,286047002.5,N
1650514655.5,286047002.3,N
1650514675.3,286047000.8,N
1650514695.1,286046999.2,N
1650514715.9,286047001.0,N
1650514735.7,286047006.0,N
1650514755.5,286047003.1,N
1650514775.4,286047000.6,N
1650514795.2,286047002.5,N
1650514815.0,286047002.4,N
1650514816.0,286047002.4,N
1650514835.8,286046999.3,N
1650514855.6,286047002.4,N
1650514875.5,286046999.9,N
1650514895.3,286046998.5,N
1650514915.1,286047000.4,N
1650514935.9,286047005.6,N
1650514955.7,286047003.7,N
1650514975.6,286047005.2,N
1650514995.4,286046999.9,N
1650515015.2,286047000.1,N
1650515035.1,286047000.6,N
1650515036.0,286047000.6,N
1650515055.8,286047000.1,N
1650515075.6,286047003.8,N
1650515095.5,286047003.6,N
1650515115.3,286047004.1,N
1650515135.2,286046997.1,N
1650515155.9,286046995.9,N
1650515175.7,286046998.2,N
1650515195.6,286046997.1,N
1650515215.4,286047001.2,N
1650515235.2,286047004.4,N
1650515255.1,286047003.4,N
1650515256.0,286047003.4,N
1650515275.8,286047002.3,N
1650515295.7,286047002.7,N
1650515315.5,286047000.2,N
1650515335.3,286047000.1,N
1650515355.2,286047001.7,N
1650515375.0,286047003.4,N
1650515375.9,286047003.4,N
1650515395.7,286047007.6,Y
1650515415.6,286047006.2,P
1650515435.4,286047003.4,N
1650515455.3,286047005.2,N
1650515475.1,286047007.3,Y
1650515476.0,286047007.3,P
1650515495.8,286047004.2,N
1650515515.7,286047003.6,N
1650515535.5,286047000.5,N
1650515555.3,286046997.6,N
1650515575.2,286046995.1,N
1650515595.0,286046996.0,N
1650515595.9,286046996.0,N
1650515615.8,286046996.3,N
1650515635.6,286046999.4,N
1650515655.4,286047002.7,N
1650515675.3,286046999.6,N
1650515695.1,286046995.1,N
1650515715.9,286047000.9,N
1650515735.7,286046995.3,N
1650515755.5,286046993.2,N
1650515775.4,286046989.4,N
1650515795.2,286046989.6,N
1650515815.0,286046988.3,N
1650515815.9,286046988.3,N
1650515835.8,286046991.3,N
1650515855.6,286046993.7,N
1650515875.5,286046993.6,N
1650515895.3,286046997.1,N
1650515915.1,286046998.6,N
1650515935.9,286047002.4,N
1650515955.7,286047001.7,N
1650515975.5,286046997.2,N
1650515995.4,286046996.1,N
1650516015.2,286046996.4,N
1650516035.1,286046996.3,N
1650516036.0,286046996.3,N
1650516055.8,286046993.4,N
1650516075.6,286046995.0,N
1650516095.5,286046994.2,N
1650516115.3,286046996.7,N
1650516135.2,286047002.3,N
1650516155.9,286047002.8,N
1650516175.7,286047000.1,N
1650516195.6,286047001.5,N
1650516215.4,286047002.5,N
1650516235.2,286046998.7,N
1650516255.1,286046996.8,N
1650516256.0,286046996.8,N
1650516275.8,286046997.6,N
1650516295.7,286046996.6,N
1650516315.5,286047000.1,N
1650516335.3,286047001.0,N
1650516355.2,286046998.2,N
1650516375.9,286046996.4,N
1650516395.7,286046987.8,Y
1650516415.6,286046992.4,P
1650516435.4,286046992.6,N
1650516455.3,286046987.4,P
1650516475.1,286046989.7,N
1650516476.0,286046989.7,N
1650516495.8,286046987.9,Y
1650516515.7,286046987.4,P
1650516535.5,286046986.1,P
1650516555.3,286046981.3,P
1650516575.2,286046979.2,Y
1650516595.0,286046992.9,P
1650516595.9,286046992.9,N
1650516615.8,286046990.0,P
1650516635.6,286046982.9,Y
1650516655.4,286046991.3,P
1650516675.3,286046985.7,P
1650516695.1,286046982.2,P
1650516715.9,286046982.2,Y
1650516735.7,286046994.6,P
1650516755.5,286046994.5,N
1650516775.4,286046996.1,N
1650516795.2,286046991.7,N
1650516815.1,286046990.3,Y
1650516816.0,286046990.3,P
1650516835.8,286047002.7,N
1650516855.6,286046996.9,N
1650516875.5,286046995.4,N
1650516895.3,286046999.7,N
1650516915.1,286047007.6,N
1650516935.9,286047002.6,N
1650516955.7,286047006.0,N
1650516975.6,286047005.7,N
1650516995.4,286047003.8,N
1650517015.2,286047005.7,N
1650517035.1,286047006.0,N
1650517036.0,286047006.0,N
1650517055.8,286047000.2,N
1650517075.6,286047001.2,N
1650517095.5,286047005.8,N
1650517115.3,286047000.8,N
1650517135.2,286046996.4,N
1650517155.9,286046990.3,N
1650517175.7,286046989.7,N
1650517195.6,286046986.6,N
